Wind_Speed
139 140 140 140 139 137 137 136 135 133 132 131 130 129 128 127 126 125 123 122 121 120 119 118 117 116 115 114 113 113 112 111 110 110 109 109 108 108 107 107 106 106 105 105 105 106 106 106 106 106 106 106 107 108 108 109 110 110 109 108 108 107 107 107 107 108 108 109 109 110 111 111 111 112 113 113 114 115 116 117 118 117 117 116 115 115
133 133 133 132 131 130 130 129 128 126 125 124 123 122 120 119 118 117 116 115 114 113 112 111 110 109 108 107 106 106 105 104 104 103 103 102 102 101 101 101 100 100 99 99 99 100 100 100 101 101 101 101 102 102 103 104 105 106 106 106 106 105 105 105 105 105 105 106 107 108 108 109 110 110 111 112 112 113 114 115 115 115 115 115 115 115
126 126 126 126 125 124 123 122 122 120 118 117 116 115 113 112 111 110 109 108 107 106 105 104 104 103 102 101 101 100 99 99 98 97 97 96 96 96 95 95 95 95 94 94 94 95 95 95 96 97 97 97 98 98 99 100 101 101 102 103 103 103 103 103 103 103 103 103 104 105 105 106 107 108 109 109 110 111 112 112 113 113 113 113 113 113
121 120 120 120 119 118 117 116 115 114 113 112 110 109 108 106 106 105 104 103 102 101 100 99 99 98 97 96 96 95 94 94 93 93 92 92 91 91 91 90 90 90 90 90 90 90 91 91 92 92 93 93 94 94 95 96 96 97 98 99 99 100 100 101 101 101 101 101 102 102 103 103 104 105 106 107 107 108 109 109 110 110 110 111 111 111
116 115 115 115 114 113 112 112 111 109 108 107 106 105 104 102 101 100 99 99 98 97 96 96 95 94 93 92 92 91 90 90 89 89 88 88 88 87 87 87 87 87 87 87 87 87 87 88 88 89 89 90 90 91 91 92 92 93 94 95 95 96 97 97 98 98 98 99 99 99 100 101 101 102 103 104 104 105 106 106 107 107 107 107 108 108
113 112 112 111 110 110 109 108 107 106 105 104 103 102 101 99 98 97 96 95 95 94 93 93 92 91 90 90 89 88 87 87 86 86 85 85 85 84 84 84 84 84 84 84 84 84 85 85 85 86 86 87 87 87 88 89 89 90 90 91 91 92 93 93 94 95 95 96 96 97 97 98 98 99 100 100 101 102 102 103 103 104 104 104 104 105
112 111 110 109 109 108 107 107 106 105 103 102 101 100 99 98 97 96 95 94 93 92 92 91 90 90 89 88 87 86 85 85 84 84 83 83 83 82 82 82 82 82 82 82 82 82 83 83 83 84 84 84 85 85 85 86 86 87 87 88 88 89 90 90 91 92 92 93 93 94 94 95 95 96 97 97 98 98 99 100 100 100 101 101 101 102
111 110 109 109 108 108 107 106 105 104 103 102 101 100 98 97 96 95 94 93 92 91 91 90 89 89 88 87 86 85 84 84 83 83 82 82 82 81 81 81 81 81 81 81 81 81 81 82 82 82 82 83 83 83 84 84 84 85 85 86 86 87 87 88 88 89 89 90 91 91 92 92 93 93 94 94 95 96 96 97 97 98 98 99 99 99
111 110 110 109 108 108 107 106 105 104 103 102 101 100 99 98 97 95 94 93 92 92 91 90 89 88 88 86 85 85 84 83 83 83 82 82 81 81 81 81 80 80 80 80 80 81 81 81 81 81 81 81 82 82 82 82 83 83 84 84 84 85 85 86 86 87 87 88 88 89 89 90 90 91 91 92 93 93 94 94 95 96 96 96 97 97
111 110 110 109 109 108 107 107 106 105 103 102 102 101 100 99 98 97 95 94 93 92 91 90 90 89 88 87 86 85 84 84 83 83 82 82 81 81 81 81 81 80 80 80 80 80 80 80 80 80 80 81 81 81 81 82 82 82 83 83 83 84 84 85 85 85 86 86 87 87 88 88 89 89 90 90 91 91 92 93 93 94 94 94 95 95
111 111 110 110 109 109 108 107 107 105 104 103 103 102 101 100 99 98 97 96 95 93 92 91 91 90 89 88 87 86 85 85 84 83 83 82 82 82 81 81 81 80 80 80 80 80 80 80 80 80 80 80 80 81 81 81 81 82 82 82 83 83 83 84 84 84 85 85 85 86 86 87 87 88 88 89 90 90 91 91 92 92 93 93 93 94
111 111 111 110 110 109 109 108 107 106 105 105 104 103 102 101 99 98 98 97 96 95 94 93 92 91 90 89 88 87 86 86 85 85 84 83 83 82 82 81 81 81 80 80 80 80 80 80 80 80 80 80 80 80 81 81 81 81 82 82 82 82 83 83 83 84 84 84 85 85 86 86 87 87 87 88 88 89 90 90 91 91 91 92 92 92
111 111 111 110 110 110 109 109 108 107 106 105 105 104 103 102 100 99 99 98 97 96 95 94 93 92 91 90 89 88 87 87 86 85 85 84 84 83 83 82 82 81 81 81 80 80 80 80 80 80 80 80 80 80 80 80 81 81 81 81 82 82 82 82 83 83 83 84 84 84 85 85 86 86 87 87 88 88 89 89 90 90 91 91 91 92
111 111 111 110 110 110 109 109 108 108 107 106 105 104 104 102 101 100 100 99 98 97 96 95 94 93 92 91 90 89 88 87 87 86 86 85 85 84 83 83 82 82 81 81 81 80 80 80 80 80 80 80 80 80 80 80 81 81 81 81 81 82 82 82 83 83 83 83 84 84 84 85 85 86 86 87 87 88 88 89 89 90 90 91 91 91
111 111 110 110 110 110 110 109 109 108 107 106 105 104 104 103 102 101 101 100 99 97 96 95 95 94 93 92 91 90 89 88 88 87 87 86 86 85 84 84 83 82 82 81 81 81 80 80 80 80 80 80 80 80 80 80 81 81 81 81 81 82 82 82 82 82 83 83 83 84 84 84 85 85 86 86 87 87 88 88 89 89 90 90 91 91
111 110 110 110 110 110 109 109 108 108 107 106 105 105 104 103 102 102 101 100 99 98 97 96 96 95 94 92 91 90 89 89 88 88 88 87 86 85 85 84 84 83 82 82 81 81 80 80 80 80 80 80 80 80 80 80 81 81 81 81 82 82 82 82 82 82 82 83 83 83 84 84 84 85 85 86 86 87 87 88 88 89 89 90 90 91
110 110 110 110 110 110 109 109 108 108 107 106 105 105 104 103 103 102 101 100 99 98 97 96 96 95 94 93 92 90 90 89 89 88 88 88 87 86 85 85 84 84 83 82 82 81 81 81 81 81 80 80 80 80 80 81 81 81 81 81 81 82 82 82 82 82 82 82 83 83 83 83 84 84 84 85 85 86 86 87 87 88 88 89 89 89
109 109 109 109 109 109 109 109 108 108 107 106 106 105 104 103 102 102 101 100 99 98 98 96 96 95 94 94 93 91 89 89 89 89 88 88 88 87 86 85 85 84 84 83 82 82 81 81 81 81 81 80 80 80 81 81 81 81 81 82 82 82 82 82 82 82 82 82 82 82 82 83 83 83 83 84 84 85 85 86 86 87 87 87 87 88
108 109 108 109 109 109 109 108 108 108 107 106 106 105 104 103 102 102 101 100 99 98 97 96 96 95 94 94 93 91 90 89 89 89 89 89 88 87 86 85 85 84 84 83 83 82 82 82 81 81 81 81 81 81 81 81 81 81 82 82 82 82 82 82 82 82 82 82 82 82 82 82 82 82 83 83 83 84 84 85 85 85 85 85 85 85
108 108 108 108 108 108 108 108 108 107 107 106 105 105 104 103 102 102 101 100 99 98 97 96 95 95 94 93 92 91 90 89 89 89 89 89 88 87 86 85 85 85 84 83 83 82 82 82 82 82 81 81 81 81 81 81 82 82 82 82 82 82 82 81 81 81 81 81 81 81 81 81 81 81 82 82 82 83 83 83 83 84 84 84 84 84
107 107 108 108 107 107 107 107 107 107 106 106 105 105 104 103 102 101 100 99 98 97 97 96 95 94 93 93 92 91 90 89 89 89 89 89 88 87 86 85 85 85 84 84 83 83 82 82 82 82 82 81 81 81 81 82 82 82 82 82 82 82 81 81 81 81 81 81 81 80 80 80 80 80 81 81 81 82 82 82 82 82 82 82 82 82
106 107 107 107 107 106 106 107 106 106 106 105 105 104 104 103 102 101 100 99 98 97 96 96 95 93 92 92 91 90 89 89 89 89 89 89 88 87 86 85 85 84 84 84 83 83 83 83 83 82 82 82 82 82 82 82 82 82 82 82 82 82 81 81 81 81 81 80 80 80 80 79 79 80 80 80 80 81 81 81 81 81 81 81 81 81
105 106 107 107 106 106 106 106 106 106 105 105 105 104 104 103 102 101 100 98 97 97 96 95 94 93 92 91 90 90 89 88 88 88 88 88 88 87 85 84 84 84 84 84 83 83 83 83 83 83 82 82 82 82 82 82 82 82 82 82 82 82 81 81 81 81 80 80 80 79 79 79 79 79 79 79 79 79 80 80 80 80 80 81 81 81
105 105 106 106 106 105 105 105 105 105 105 104 104 104 103 102 101 100 99 98 97 96 95 94 93 92 91 90 89 89 88 88 87 87 88 88 87 86 85 84 84 84 84 83 83 83 83 83 83 83 82 82 82 82 82 82 82 82 82 82 82 82 82 81 81 81 80 80 79 79 78 78 78 78 78 78 78 78 79 79 79 80 80 80 80 80
105 105 105 105 105 105 105 105 104 104 104 104 104 103 103 102 101 100 99 97 96 95 94 93 92 92 90 89 88 88 87 87 86 86 87 87 87 86 85 84 84 84 84 83 82 82 83 83 83 83 83 83 83 83 83 83 83 82 82 82 82 82 82 81 81 81 80 80 79 79 78 78 77 77 77 77 77 78 78 78 79 79 79 80 80 80
105 105 105 105 105 105 104 104 104 104 103 103 103 103 102 101 100 99 98 97 96 95 94 93 92 91 90 88 88 87 86 86 86 86 86 86 86 85 84 83 83 83 83 82 82 82 82 83 83 83 83 83 83 83 83 83 83 82 82 82 82 82 82 82 81 81 81 80 79 78 78 77 77 76 76 76 76 77 77 78 78 79 79 79 79 79
105 104 104 104 104 104 104 103 103 103 103 103 102 102 102 101 100 99 98 98 96 95 94 93 91 90 89 88 87 86 85 85 85 85 84 85 85 85 84 83 82 82 82 82 82 82 82 83 83 83 83 83 83 83 83 83 83 82 82 82 82 82 82 82 81 81 81 80 79 78 78 77 76 76 75 75 76 76 77 78 78 79 79 79 79 79
105 104 104 104 103 103 103 103 102 102 102 102 102 102 101 100 100 99 99 98 96 95 94 92 91 90 88 87 86 85 84 84 84 84 83 83 84 84 83 82 82 82 82 82 82 82 82 82 83 83 83 83 83 83 83 83 83 82 82 82 82 81 81 81 81 81 80 80 79 78 77 77 76 75 75 75 75 76 77 77 78 78 78 78 79 78
105 104 103 103 103 102 102 102 102 102 101 101 101 101 101 100 99 99 99 97 96 95 94 92 91 89 88 87 85 84 84 84 83 83 82 83 83 83 83 82 81 81 81 82 82 82 82 82 82 83 83 83 83 83 83 83 83 82 82 82 81 81 81 81 81 81 80 79 79 78 77 76 76 75 74 75 75 76 77 77 78 78 78 78 78 78
105 104 103 102 102 102 102 101 101 101 101 101 101 100 100 100 99 99 98 97 96 95 94 92 91 89 88 86 85 84 84 83 82 82 81 82 83 83 82 81 81 81 81 81 82 82 82 82 82 82 83 83 83 83 83 83 83 82 82 82 81 81 81 81 81 81 80 79 78 78 77 76 75 74 74 74 75 76 77 77 78 78 78 78 78 78
104 103 102 101 101 101 101 101 101 101 100 100 100 100 100 99 99 98 97 96 95 94 93 92 91 89 87 86 84 84 83 82 81 81 81 81 82 82 81 81 81 80 80 80 81 82 82 82 82 82 82 83 83 83 83 83 83 82 82 82 81 81 81 81 80 80 80 79 78 77 77 76 75 74 74 74 75 76 77 77 77 77 77 77 78 78
103 102 101 101 101 100 100 100 100 100 100 99 100 99 99 99 98 98 97 96 95 94 93 92 90 89 87 86 84 83 83 82 81 80 80 81 81 81 80 80 80 80 80 80 81 82 82 83 83 82 82 83 83 83 83 83 83 82 82 82 81 81 80 80 80 80 79 78 77 77 76 75 74 74 74 74 75 76 77 77 77 77 77 77 77 78
102 101 100 100 100 99 99 99 99 99 99 99 99 99 99 98 98 97 97 96 95 93 92 91 90 89 87 86 84 83 82 81 80 80 80 80 80 80 80 80 80 80 80 80 81 81 82 83 83 83 83 83 83 83 83 83 83 82 82 82 81 81 80 79 79 79 78 77 77 76 75 74 73 73 73 74 75 76 77 77 77 77 77 77 77 77
101 100 99 99 98 98 98 98 98 98 98 98 99 98 98 98 97 97 96 95 94 93 92 91 90 89 87 86 85 83 81 81 80 79 79 79 79 80 79 79 80 80 80 80 81 81 82 83 83 83 84 83 83 83 83 83 83 82 82 81 81 80 80 79 79 78 77 76 76 75 74 73 72 72 73 74 75 76 76 77 77 77 77 77 77 77
99 99 98 97 97 97 97 97 98 98 98 98 98 98 98 98 97 97 96 95 94 93 92 91 89 88 87 86 84 83 81 80 79 79 79 79 79 79 79 79 79 79 80 80 81 81 82 82 83 83 84 84 84 83 83 83 82 82 81 81 81 80 80 79 78 77 76 75 74 74 73 72 72 72 72 73 74 75 76 76 76 76 76 76 76 76
97 97 96 96 96 96 96 97 97 97 97 97 97 97 97 97 97 96 95 95 94 93 92 90 89 88 86 85 84 82 81 80 79 79 78 78 78 78 79 79 79 79 80 80 81 81 82 82 83 83 84 84 84 84 83 82 82 82 81 81 80 80 79 78 77 76 75 74 73 72 71 71 71 72 72 73 74 75 76 76 76 76 75 75 75 75
95 95 94 94 94 95 95 95 96 96 96 97 97 97 97 96 96 96 95 94 93 92 91 90 89 88 86 85 84 82 81 80 79 79 78 78 78 78 78 78 79 79 79 80 81 81 82 82 83 83 84 84 84 84 83 83 82 82 81 81 80 79 79 77 76 75 74 73 72 71 71 71 71 71 72 73 74 75 75 75 75 75 75 74 74 74
93 93 93 93 93 93 94 94 95 95 96 96 96 96 96 96 95 95 94 94 93 92 91 90 89 87 86 85 83 82 81 80 79 79 78 78 78 78 78 78 78 78 79 79 80 81 81 82 82 83 83 84 84 84 83 83 82 82 81 80 80 79 78 76 75 74 73 72 71 71 70 70 71 72 73 74 74 75 75 75 74 74 74 73 73 73
91 91 91 92 92 92 93 93 94 94 95 95 95 96 95 95 95 94 94 93 93 92 91 90 88 87 86 85 83 82 81 80 79 79 78 78 77 77 78 78 78 78 78 79 79 80 81 81 82 83 83 83 84 83 83 83 82 82 81 80 79 78 77 75 74 73 72 72 71 70 70 70 71 72 73 74 74 74 74 74 74 74 73 72 72 71
89 89 90 90 91 91 92 92 93 93 94 94 95 95 95 95 94 94 93 93 92 91 90 89 88 87 85 84 83 82 81 80 79 78 78 78 77 77 77 77 78 78 78 79 79 80 80 81 82 82 83 83 83 83 83 83 82 81 81 80 79 78 75 74 73 72 71 71 70 70 70 71 72 73 73 73 73 74 74 74 73 73 72 71 71 70
87 88 88 89 89 90 91 91 92 93 93 94 94 94 94 94 93 93 93 92 92 91 90 88 87 86 85 84 83 82 81 80 79 78 78 77 77 77 77 77 77 78 78 78 79 79 80 81 81 82 82 83 83 83 83 82 81 81 80 79 78 77 75 74 73 72 71 70 70 70 71 72 72 73 73 73 73 73 73 73 73 72 71 70 69 69
86 86 87 88 88 89 90 90 91 92 92 93 93 93 93 93 93 93 92 92 91 90 89 88 87 86 85 84 83 82 81 80 79 78 78 77 77 77 77 77 77 77 77 78 79 79 80 80 81 81 82 82 82 82 82 82 81 80 79 78 77 76 74 73 72 72 71 71 71 71 72 73 73 73 73 73 73 72 72 72 72 71 70 69 68 68
84 85 85 86 87 88 88 89 90 91 92 92 92 92 92 92 92 92 92 92 91 90 89 88 87 86 86 85 83 82 81 79 79 78 77 77 76 76 76 76 76 76 77 78 78 79 79 79 80 80 81 81 81 81 81 81 80 79 78 77 76 75 74 73 72 71 71 71 72 72 73 73 73 73 73 73 73 72 72 71 71 70 69 69 68 68
82 83 84 85 86 86 87 88 89 90 91 91 91 91 91 91 91 91 91 91 90 89 88 87 86 86 86 85 84 82 80 79 78 77 77 76 76 76 75 75 76 76 77 77 78 79 79 79 79 80 79 79 80 80 80 79 79 78 77 75 74 73 73 73 72 71 71 72 72 73 74 74 74 74 73 73 73 73 72 72 71 70 70 69 69 68
81 82 82 84 84 86 87 88 89 89 90 90 90 90 90 90 90 90 90 90 89 88 87 86 86 86 86 85 83 82 80 79 78 77 77 76 75 75 75 75 75 76 76 77 77 78 78 79 79 79 78 78 78 78 78 78 77 77 75 74 73 72 72 71 71 71 72 72 73 74 74 74 74 74 73 73 73 73 72 72 72 71 70 70 69 69
79 80 81 82 83 85 86 87 88 88 89 89 89 89 89 89 89 89 89 89 88 88 87 86 85 86 86 85 83 81 80 79 78 77 76 75 75 74 74 74 75 75 76 77 77 77 77 78 78 78 77 77 77 77 77 76 76 75 73 72 71 71 70 70 70 71 72 73 73 74 74 74 73 73 73 73 73 73 72 72 72 72 71 71 70 70
78 79 80 81 82 84 85 86 87 87 88 88 88 88 88 88 88 88 88 88 87 87 86 85 85 85 85 84 82 81 80 79 78 76 75 74 74 73 73 74 74 75 76 76 76 76 76 76 76 76 76 76 76 76 75 74 73 72 71 70 70 69 69 69 70 71 72 73 73 74 73 73 73 73 73 73 73 73 73 73 72 72 72 71 71 70
76 78 79 80 81 83 84 85 85 86 87 87 87 87 87 87 87 87 87 86 86 86 85 85 85 85 84 83 81 80 79 78 77 76 74 74 73 73 73 73 74 75 75 75 76 75 75 75 75 75 75 74 74 74 73 72 71 70 69 69 68 68 69 69 70 71 72 72 73 73 73 73 72 72 72 72 72 72 73 73 73 72 72 71 71 71
75 76 78 79 80 81 83 83 84 85 85 86 86 86 85 85 85 86 86 85 85 85 85 85 84 84 83 82 80 79 78 77 76 74 73 73 72 72 72 73 74 74 75 75 75 74 74 74 73 73 73 72 72 72 71 70 69 68 67 67 67 67 68 69 70 71 72 72 72 72 72 72 71 71 71 71 72 72 72 73 73 73 72 72 71 71
74 75 76 78 79 80 81 82 83 83 84 84 84 84 84 84 84 84 84 84 84 84 84 83 83 82 82 81 79 78 77 75 74 73 72 72 71 71 72 73 73 74 74 74 73 73 73 72 72 71 71 70 70 70 69 68 67 66 66 66 66 67 68 69 70 71 71 72 72 72 71 71 71 70 70 70 71 71 72 72 73 73 72 72 71 70
72 74 75 76 77 78 79 80 81 82 82 83 83 83 83 83 83 83 83 83 83 82 82 82 81 81 80 79 78 76 75 74 73 72 71 71 70 71 71 72 73 73 73 73 72 71 71 71 70 70 69 68 67 67 67 66 66 65 65 65 66 67 68 69 70 70 71 71 71 71 71 70 70 69 69 69 70 71 71 72 73 73 72 71 71 70
Wind_Direction
274 274 274 274 274 274 275 275 275 275 275 275 275 275 275 276 276 276 276 276 276 276 276 276 276 276 276 276 276 276 276 275 275 275 275 275 275 275 275 275 275 275 275 275 275 275 275 276 276 276 276 277 277 277 278 279 279 280 280 279 279 278 278 278 277 277 277 277 277 277 277 277 276 276 276 276 276 276 277 277 278 278 279 278 278 277
274 274 274 274 274 275 275 275 275 275 275 275 275 275 275 276 276 276 276 276 276 276 276 276 276 276 276 276 276 275 275 275 275 275 275 275 275 275 275 275 275 275 275 275 275 275 275 275 276 276 276 276 276 277 277 278 278 279 279 279 279 279 279 278 278 277 277 277 277 277 277 277 277 276 276 276 276 276 276 277 277 278 278 278 278 278
274 274 274 274 274 275 275 275 275 275 275 275 275 275 275 275 276 276 276 276 276 276 276 276 276 276 276 276 276 276 276 275 275 275 275 275 276 276 276 276 276 276 275 275 275 275 275 276 276 276 276 276 276 276 277 277 277 278 278 279 279 279 279 279 278 278 278 277 277 277 277 276 276 276 276 276 276 276 276 277 277 277 277 277 278 278
274 274 274 275 275 275 275 275 275 275 275 275 275 275 276 276 276 276 276 276 276 276 276 276 276 276 276 276 276 276 276 276 276 276 276 276 276 276 276 276 276 276 276 276 276 276 276 276 276 276 276 276 277 277 277 277 277 277 278 278 278 278 279 279 279 279 278 278 278 277 277 277 277 277 277 276 277 277 277 277 277 277 277 277 277 277
274 274 275 275 275 275 275 276 276 276 276 276 276 276 276 276 276 276 276 276 276 276 276 277 277 277 277 277 277 277 277 277 277 277 277 277 277 277 277 277 277 277 277 277 277 277 277 277 277 277 277 277 277 277 277 277 277 277 278 278 278 278 278 278 278 278 278 278 278 278 278 277 277 277 277 277 277 277 277 277 277 277 277 278 278 278
275 275 275 275 276 276 276 276 276 276 276 276 276 276 276 276 276 276 276 276 276 277 277 277 277 277 277 277 277 277 277 277 277 277 277 277 277 277 278 278 278 278 278 278 278 278 278 278 278 278 278 278 278 278 278 278 278 278 278 278 278 278 278 278 278 278 278 278 278 278 278 278 278 278 278 278 278 278 278 278 278 278 278 278 278 278
275 276 276 276 276 276 276 276 277 277 277 277 277 277 277 277 277 277 277 277 277 277 277 277 277 277 277 278 278 278 278 278 278 278 278 278 278 278 278 279 279 279 279 279 279 279 279 279 279 279 279 279 279 279 279 279 279 279 279 279 279 279 279 279 279 279 279 279 279 279 279 279 279 279 279 279 279 279 279 279 279 279 279 279 279 279
276 276 276 277 277 277 277 277 277 277 277 277 277 278 278 277 277 277 277 277 277 277 277 277 278 278 278 278 278 278 279 279 279 279 279 279 279 279 279 279 279 280 280 280 280 280 280 280 280 280 280 280 280 280 280 280 280 280 280 280 280 280 280 280 279 280 279 279 279 279 279 279 279 279 279 279 279 279 279 279 279 280 280 280 280 280
277 277 277 277 277 277 278 278 278 278 278 278 278 278 278 278 278 278 278 278 278 278 278 278 278 278 278 278 279 279 279 279 279 280 280 280 280 280 280 280 280 280 280 281 281 281 281 281 281 281 281 281 281 281 281 281 281 281 281 281 281 281 281 281 281 281 281 281 280 280 280 280 280 280 280 280 280 280 280 280 280 280 280 280 280 280
277 277 277 278 278 278 278 278 278 278 278 278 278 278 278 278 278 278 278 278 278 278 278 279 279 279 279 279 279 279 280 280 280 280 280 280 280 280 281 281 281 281 281 281 281 281 282 282 282 282 282 282 282 282 282 282 282 282 282 282 282 282 282 282 282 282 282 282 282 281 281 281 281 281 281 281 281 281 281 281 281 281 281 281 281 281
277 277 277 278 278 278 278 278 278 278 278 278 278 278 278 278 278 279 279 279 279 279 279 279 279 279 279 280 280 280 280 280 280 280 281 281 281 281 281 281 281 281 282 282 282 282 282 282 283 283 283 283 283 283 283 283 283 283 283 283 283 283 283 283 283 283 283 283 283 283 282 282 282 282 282 282 282 282 282 282 282 281 281 281 281 281
277 277 277 277 278 278 278 278 278 278 278 278 278 279 279 279 279 279 279 279 279 279 279 279 279 279 280 280 280 280 280 281 281 281 281 281 281 281 281 282 282 282 282 282 282 283 283 283 283 283 283 283 283 283 284 284 284 284 284 284 284 284 284 284 284 284 284 283 283 283 283 283 283 283 283 283 283 282 282 282 282 282 282 282 282 281
276 276 277 277 277 277 277 278 278 278 278 278 278 279 279 279 279 279 279 279 279 279 279 280 280 280 280 280 280 280 281 281 281 281 281 281 281 282 282 282 282 282 282 282 283 283 283 283 284 284 284 284 284 284 284 284 284 284 284 284 284 284 284 284 284 284 284 284 284 284 284 284 284 284 283 283 283 283 283 283 283 282 282 282 282 282
276 276 276 276 277 277 277 277 277 278 278 278 278 278 279 279 279 279 279 279 279 279 279 280 280 280 280 280 280 280 281 281 281 281 281 281 282 282 282 282 282 282 283 283 283 283 283 284 284 284 284 284 284 284 285 285 285 285 285 285 285 285 285 285 285 285 285 285 285 285 284 284 284 284 284 284 284 284 283 283 283 283 283 283 282 282
275 275 276 276 276 276 277 277 277 277 277 278 278 278 278 278 278 278 279 279 279 279 279 279 280 280 280 280 280 280 281 281 281 281 281 282 282 282 282 282 283 283 283 283 283 283 284 284 284 284 284 285 285 285 285 285 285 285 285 285 285 285 285 285 285 285 285 285 285 285 285 285 285 285 285 284 284 284 284 284 283 283 283 283 283 282
274 275 275 275 275 276 276 276 277 277 277 277 277 278 278 278 278 278 278 279 279 279 279 279 280 280 280 280 280 280 280 281 281 281 281 281 282 282 282 282 283 283 283 283 283 284 284 284 284 284 285 285 285 285 285 285 285 285 285 285 285 285 285 286 286 286 286 286 286 286 285 285 285 285 285 285 285 284 284 284 284 283 283 283 283 282
274 274 274 274 275 275 275 276 276 276 277 277 277 277 277 277 278 278 278 278 278 279 279 279 279 279 280 280 280 280 280 280 281 281 281 281 281 282 282 282 283 283 283 283 284 284 284 284 284 284 285 285 285 285 285 285 285 285 286 286 286 286 286 286 286 286 286 286 286 286 286 286 286 285 285 285 285 284 284 284 284 283 283 283 282 282
273 273 273 274 274 274 275 275 276 276 276 276 276 277 277 277 277 277 278 278 278 278 279 279 279 279 279 280 280 280 280 280 280 281 281 281 281 281 282 282 282 283 283 283 284 284 284 284 284 284 285 285 285 285 285 285 285 286 286 286 286 286 286 286 286 286 286 286 286 286 286 286 286 286 285 285 285 284 284 284 284 283 283 283 283 282
272 272 272 273 273 274 274 274 275 275 275 276 276 276 276 277 277 277 277 277 278 278 278 279 279 279 279 279 280 280 280 280 280 280 281 281 281 281 281 282 282 283 283 283 283 284 284 284 284 284 284 285 285 285 285 285 285 286 286 286 286 286 286 286 286 286 286 286 286 286 286 286 286 286 285 285 285 285 284 284 284 284 283 283 283 283
271 271 271 272 272 273 273 274 274 274 275 275 276 276 276 276 276 276 277 277 277 278 278 278 278 279 279 279 279 280 280 280 280 280 280 280 281 281 281 281 282 282 283 283 283 283 284 284 284 284 284 285 285 285 285 285 285 286 286 286 286 286 286 286 286 286 287 287 287 287 287 286 286 286 286 286 285 285 285 285 285 284 284 284 284 283
270 270 271 271 271 272 272 273 273 274 274 275 275 275 275 275 276 276 276 277 277 277 277 278 278 278 279 279 279 280 280 280 280 280 280 280 280 280 281 281 281 282 282 283 283 283 283 284 284 284 284 284 285 285 285 285 285 286 286 286 286 286 286 287 287 287 287 287 287 287 287 287 287 287 286 286 286 286 286 286 285 285 285 285 285 284
269 269 270 270 271 271 271 272 272 273 273 274 274 274 275 275 275 276 276 276 277 277 277 277 278 278 278 279 279 279 280 280 280 280 280 280 280 280 280 281 281 282 282 282 283 283 283 283 284 284 284 284 285 285 285 285 285 286 286 286 286 287 287 287 287 287 287 287 288 288 287 287 287 287 287 287 287 287 287 287 286 286 286 286 286 285
268 268 269 269 270 270 270 271 272 272 273 273 273 274 274 274 275 275 275 276 276 276 277 277 277 278 278 278 279 279 279 279 279 280 280 280 280 280 280 281 281 281 281 282 282 283 283 283 283 284 284 284 284 285 285 285 285 286 286 287 287 287 287 287 288 288 288 288 288 288 288 288 288 288 288 288 288 288 287 287 287 287 287 287 286 286
267 268 268 268 269 269 270 270 270 271 272 272 272 273 274 274 274 275 275 275 275 276 276 276 277 277 277 278 278 279 279 279 279 280 279 280 280 280 280 281 281 281 281 282 282 282 283 283 283 283 284 284 284 285 285 285 286 286 287 287 287 287 288 288 288 288 288 288 289 289 289 288 289 289 289 289 288 288 288 288 288 288 287 287 287 287
267 267 267 267 268 268 268 269 269 270 270 271 272 272 273 273 274 274 274 275 275 275 276 276 276 277 277 278 278 279 279 279 279 279 279 280 280 280 280 280 280 280 281 281 282 282 282 283 283 283 284 284 284 285 285 285 286 286 287 287 288 288 288 288 288 289 289 289 289 289 289 289 289 289 289 289 289 289 289 288 288 288 288 288 287 287
266 266 266 266 267 267 267 268 268 269 269 270 271 271 272 272 273 273 274 274 274 275 275 276 276 277 278 278 278 279 279 279 279 279 279 280 280 280 280 280 280 280 281 281 281 282 282 282 283 283 283 284 284 285 285 285 286 287 287 287 288 288 288 289 289 289 289 290 290 290 290 290 290 290 290 290 290 289 289 289 289 288 288 288 288 288
265 265 265 265 266 266 266 267 267 268 268 269 269 270 271 271 272 272 273 273 274 274 275 275 276 277 278 278 278 278 279 279 279 279 279 279 280 280 280 280 280 280 280 281 281 281 281 282 282 283 283 284 284 284 285 285 286 287 287 288 288 288 289 289 289 290 290 290 290 291 291 291 291 291 291 290 290 290 289 289 289 288 288 288 288 288
264 264 264 264 265 265 265 265 266 266 267 268 268 269 270 270 271 271 272 273 274 274 275 275 276 276 277 277 278 278 279 279 279 279 279 279 279 279 280 280 280 280 280 280 281 281 281 281 282 282 283 283 284 284 285 285 286 287 287 287 288 288 289 289 289 290 290 291 291 291 291 291 291 291 291 291 290 290 290 289 289 289 289 289 288 288
264 264 263 263 263 264 264 264 265 265 266 266 267 268 269 269 270 270 271 273 273 274 274 275 276 276 277 277 278 278 278 278 278 279 279 279 279 279 280 280 280 280 280 280 281 281 281 281 281 282 282 283 283 284 285 285 286 286 287 287 288 288 289 289 289 290 290 291 291 291 292 292 292 292 291 291 291 290 290 289 289 289 289 289 289 289
263 263 262 262 262 262 262 263 263 264 264 265 266 267 268 268 269 270 271 272 272 273 274 274 275 276 276 277 277 278 278 278 279 279 279 279 279 279 279 279 279 279 280 280 280 280 281 281 281 281 282 282 283 284 284 285 285 286 287 287 287 288 288 289 289 290 291 291 291 291 292 292 292 292 292 291 291 291 290 290 290 289 289 289 289 289
262 261 261 261 261 261 261 261 262 263 263 264 265 266 266 267 268 269 270 271 272 272 273 274 274 275 276 276 276 277 278 278 279 279 279 279 279 279 279 279 279 279 279 279 280 280 280 281 281 281 281 282 283 283 284 284 285 286 286 287 287 288 288 289 289 290 290 291 291 291 292 292 292 292 292 292 291 291 290 290 290 290 290 290 290 290
261 260 260 260 260 260 260 260 261 261 262 263 264 264 265 266 267 268 269 270 271 272 272 273 274 274 275 276 276 277 278 278 279 279 278 278 278 279 279 279 279 279 279 279 279 279 280 280 281 281 281 282 282 283 283 284 285 285 286 286 287 287 288 288 289 289 290 290 291 291 291 292 292 292 292 292 291 291 290 290 290 290 290 290 290 290
259 259 259 258 258 258 259 259 259 260 261 262 262 263 264 265 267 268 268 269 270 271 271 272 273 274 274 275 276 277 278 278 278 278 278 278 278 278 278 278 278 278 279 279 279 279 279 280 280 281 281 281 282 282 283 284 284 285 286 286 287 287 288 288 288 289 289 290 290 291 291 292 292 292 292 291 291 290 290 290 290 290 290 290 290 291
258 258 258 257 257 257 257 258 258 259 260 260 261 262 263 265 266 267 268 268 269 270 271 271 272 273 274 275 276 277 277 278 278 278 278 278 278 278 278 278 278 278 278 278 278 279 279 279 280 280 281 281 282 282 283 283 284 285 285 286 287 287 287 288 288 288 289 289 290 290 291 291 291 291 291 291 290 290 289 289 289 289 289 290 290 290
257 257 256 256 256 256 256 256 257 258 258 259 260 261 262 264 265 266 267 268 268 269 270 271 271 272 273 274 275 276 277 277 278 278 278 278 277 277 277 277 277 277 278 278 278 279 279 279 279 280 281 281 282 282 283 283 284 285 285 286 286 287 287 287 288 288 289 289 289 290 290 291 291 290 290 289 289 288 288 288 288 288 289 289 289 290
256 256 255 255 255 255 255 255 256 257 257 258 259 260 261 263 264 265 266 267 268 268 269 270 271 272 273 274 275 276 277 277 278 278 277 277 277 277 277 277 277 277 277 277 278 278 278 279 279 280 280 281 282 282 283 283 284 284 285 285 286 286 287 287 287 288 288 289 289 290 290 290 290 289 289 288 287 287 287 287 287 288 288 288 289 289
255 254 254 254 254 254 254 255 255 256 257 257 259 260 261 262 263 264 265 266 267 268 268 269 270 271 272 273 274 275 276 277 277 277 277 277 277 276 276 276 277 277 277 277 277 278 278 278 279 280 280 281 281 282 283 284 284 284 285 285 286 286 286 287 287 288 288 289 289 289 289 289 289 288 288 287 286 286 286 286 287 287 287 288 288 289
254 253 253 253 253 253 253 254 254 255 256 257 258 259 260 261 262 263 264 265 266 267 268 268 269 270 272 273 274 275 276 276 276 276 276 276 276 276 276 276 276 276 276 276 277 277 278 278 278 279 280 281 282 282 283 283 284 284 285 285 285 286 286 287 287 288 288 288 289 289 289 288 288 287 286 286 286 286 286 286 286 286 287 287 287 288
252 252 252 252 252 252 253 253 254 254 255 256 257 258 259 260 261 262 263 264 265 266 267 268 269 270 271 272 273 274 275 276 276 276 276 276 276 276 275 275 275 276 276 276 276 277 277 277 278 279 279 280 281 282 283 283 284 284 285 285 286 286 286 287 287 288 288 288 289 288 288 288 287 286 286 285 285 285 286 286 286 286 287 287 287 288
252 252 251 252 252 252 252 253 253 254 255 256 257 258 258 259 260 262 263 264 265 266 266 267 268 269 270 272 273 274 274 275 275 276 276 275 275 275 275 275 275 275 275 276 276 276 276 277 278 279 279 280 281 282 283 283 284 284 285 285 286 286 287 287 287 288 288 288 288 288 288 287 286 286 285 285 285 285 286 286 286 286 287 287 288 288
251 251 251 251 251 251 252 252 253 254 254 255 256 257 258 259 260 261 262 263 264 265 266 267 268 269 270 271 272 273 274 274 275 275 275 275 275 275 275 275 275 275 275 275 275 276 276 277 277 278 279 280 281 282 282 283 283 284 285 285 286 287 287 287 288 288 288 288 288 288 287 286 286 285 285 285 285 286 286 286 286 287 287 288 288 289
250 250 250 251 251 251 251 252 252 253 254 255 255 256 257 258 259 260 261 262 263 264 265 266 267 268 269 270 271 272 273 274 274 274 274 274 274 274 274 274 274 274 275 275 275 275 276 276 277 278 279 279 280 281 282 283 283 284 284 285 286 287 287 288 288 288 288 288 288 287 287 286 286 286 286 286 286 286 286 287 287 288 289 289 290 290
250 250 250 250 250 251 251 251 252 252 253 254 255 256 257 258 259 260 261 262 263 264 265 266 267 267 268 269 271 272 273 273 273 274 274 274 274 273 273 274 274 274 274 274 275 275 276 276 277 277 278 279 280 281 282 282 283 284 284 285 286 287 288 288 288 289 289 288 288 287 287 287 286 287 287 287 287 288 288 288 289 290 290 291 291 291
249 249 249 250 250 250 250 251 251 252 253 254 254 256 257 258 258 259 260 261 262 264 265 265 266 267 268 269 270 271 272 272 273 273 273 273 273 273 273 273 273 273 273 274 274 275 276 276 277 277 278 279 279 280 281 282 283 283 284 285 286 287 287 288 289 289 289 288 288 287 287 287 287 288 288 288 289 289 290 290 291 292 292 292 292 292
249 249 249 249 249 249 250 250 251 252 253 253 254 255 256 257 258 259 260 261 262 263 264 265 266 266 267 268 269 270 271 272 272 272 272 272 272 272 272 272 272 273 273 273 274 274 275 276 277 277 278 278 279 280 280 281 282 283 284 285 286 287 287 288 288 289 288 288 288 287 287 288 288 289 289 289 290 291 291 292 293 293 293 293 293 293
248 248 248 248 249 249 249 250 251 252 252 253 254 255 256 257 258 259 260 261 262 263 264 265 265 266 267 268 269 270 270 271 271 271 271 271 272 272 272 272 272 272 272 273 274 274 275 276 276 277 278 278 279 279 280 281 282 283 284 285 286 286 287 287 288 288 287 287 287 287 287 288 288 289 289 290 291 292 292 293 293 294 294 294 293 293
248 248 248 248 248 249 249 250 251 251 252 253 254 255 256 257 257 258 259 260 261 262 263 264 265 266 266 267 268 269 269 270 270 270 270 271 271 271 271 271 271 272 272 273 273 274 275 276 276 277 277 278 278 279 280 280 281 283 284 285 286 286 287 287 287 287 286 286 286 287 287 288 289 289 290 291 292 292 293 293 294 294 294 294 293 293
248 248 248 248 248 249 249 250 250 251 252 252 254 255 255 256 257 258 259 260 261 262 263 264 264 265 266 267 268 268 269 269 269 269 270 270 270 270 270 270 271 271 272 273 273 274 275 275 276 276 277 277 278 279 280 281 282 283 284 285 286 286 287 286 286 286 286 286 286 287 287 288 289 289 290 291 292 293 293 294 294 293 293 293 293 293
247 247 247 248 248 248 249 249 250 251 251 252 253 254 255 256 257 258 259 260 261 262 262 263 264 265 266 266 267 268 268 268 268 269 269 269 269 269 270 270 270 271 272 273 274 274 275 275 276 276 276 277 278 279 280 281 282 283 284 285 285 286 286 286 285 285 285 285 286 287 287 288 289 290 291 292 292 293 293 293 293 293 293 293 293 293
247 247 247 247 248 248 249 249 250 250 251 252 253 254 255 256 257 258 259 260 260 261 262 263 264 264 265 266 266 267 267 267 267 268 268 268 269 269 269 269 270 271 272 273 274 275 275 275 276 276 276 276 277 278 280 281 282 283 284 284 285 285 285 285 284 284 285 285 286 287 287 288 289 290 291 292 292 293 293 293 292 292 293 293 293 294
247 247 247 247 248 248 248 249 250 250 251 252 253 254 255 256 256 257 258 259 260 261 262 262 263 264 264 265 265 266 266 266 267 267 267 268 268 268 268 269 270 271 273 274 275 275 275 276 276 276 276 276 277 278 280 281 282 283 284 284 284 284 283 283 284 284 284 285 286 287 288 289 290 291 291 292 292 292 292 292 292 292 292 293 293 294
Height
10520 10518 10516 10516 10517 10517 10517 10517 10518 10519 10520 10519 10519 10518 10519 10519 10517 10517 10516 10516 10516 10516 10515 10514 10514 10514 10514 10513 10512 10512 10512 10511 10510 10509 10509 10509 10508 10508 10508 10507 10507 10507 10507 10506 10504 10503 10501 10499 10498 10497 10496 10495 10493 10491 10489 10487 10486 10485 10486 10486 10487 10488 10489 10489 10488 10487 10486 10485 10484 10483 10482 10482 10482 10481 10481 10479 10478 10476 10474 10472 10471 10469 10469 10470 10471 10471
10511 10510 10508 10507 10507 10508 10508 10507 10508 10509 10511 10511 10510 10509 10510 10510 10509 10507 10507 10507 10507 10506 10506 10506 10505 10505 10504 10504 10504 10503 10503 10502 10502 10501 10501 10501 10500 10499 10499 10499 10498 10498 10497 10497 10496 10495 10494 10492 10491 10490 10489 10488 10487 10486 10484 10482 10481 10479 10478 10477 10477 10478 10478 10478 10479 10478 10478 10477 10476 10475 10474 10473 10472 10471 10471 10470 10469 10467 10466 10465 10463 10462 10461 10461 10460 10460
10502 10501 10500 10499 10499 10499 10500 10499 10499 10500 10501 10501 10501 10501 10501 10501 10500 10499 10498 10498 10498 10497 10497 10496 10496 10496 10496 10495 10495 10495 10495 10494 10494 10494 10493 10493 10492 10492 10491 10491 10490 10489 10489 10489 10488 10487 10486 10485 10484 10482 10481 10481 10480 10479 10478 10477 10476 10474 10472 10471 10471 10469 10469 10469 10469 10469 10469 10469 10468 10467 10466 10465 10464 10463 10462 10461 10460 10459 10457 10456 10455 10454 10453 10452 10451 10451
10493 10492 10491 10490 10490 10491 10491 10491 10491 10491 10492 10492 10492 10492 10492 10492 10492 10491 10491 10490 10490 10489 10488 10487 10487 10487 10487 10487 10487 10487 10487 10486 10486 10486 10486 10485 10485 10484 10483 10482 10482 10481 10481 10480 10479 10479 10478 10477 10476 10475 10474 10473 10472 10472 10471 10470 10469 10468 10467 10466 10464 10463 10462 10461 10461 10460 10459 10459 10459 10458 10457 10457 10456 10454 10454 10452 10451 10450 10449 10448 10447 10446 10445 10444 10443 10442
10485 10484 10483 10482 10482 10482 10482 10482 10482 10483 10483 10484 10484 10484 10484 10484 10484 10483 10483 10482 10482 10481 10480 10480 10479 10479 10479 10479 10479 10479 10479 10479 10479 10478 10478 10477 10477 10476 10476 10475 10474 10474 10473 10472 10472 10471 10470 10469 10468 10467 10466 10466 10465 10464 10464 10463 10462 10461 10460 10459 10457 10456 10455 10454 10453 10452 10451 10451 10450 10449 10449 10448 10447 10446 10445 10444 10442 10442 10441 10439 10439 10437 10436 10436 10434 10433
10476 10476 10476 10475 10474 10474 10474 10474 10474 10474 10475 10475 10475 10476 10476 10476 10476 10475 10475 10474 10474 10473 10472 10472 10472 10472 10472 10471 10471 10471 10471 10471 10471 10471 10471 10470 10469 10469 10468 10467 10467 10466 10466 10464 10464 10463 10462 10462 10461 10460 10459 10458 10457 10457 10456 10456 10454 10454 10453 10452 10451 10449 10448 10447 10446 10445 10444 10442 10442 10441 10440 10439 10438 10437 10436 10435 10434 10433 10432 10431 10429 10429 10427 10426 10426 10424
10467 10468 10467 10467 10466 10466 10466 10466 10466 10466 10467 10467 10467 10467 10467 10467 10467 10467 10467 10466 10466 10466 10465 10464 10464 10464 10464 10464 10464 10464 10464 10464 10464 10464 10463 10462 10462 10461 10461 10460 10459 10459 10458 10457 10456 10456 10455 10454 10453 10452 10452 10451 10450 10449 10449 10448 10447 10446 10445 10444 10443 10442 10441 10440 10439 10437 10436 10435 10434 10433 10432 10431 10430 10429 10427 10427 10426 10424 10423 10422 10421 10420 10419 10417 10416 10415
10459 10459 10459 10459 10459 10458 10458 10458 10458 10459 10459 10459 10459 10459 10459 10459 10459 10459 10459 10459 10459 10458 10457 10457 10457 10457 10457 10457 10457 10457 10457 10457 10457 10456 10456 10456 10455 10454 10454 10452 10452 10451 10451 10449 10449 10448 10447 10447 10446 10445 10444 10444 10442 10442 10441 10440 10439 10438 10437 10436 10436 10434 10433 10432 10431 10430 10429 10427 10426 10426 10424 10423 10422 10421 10419 10418 10417 10416 10415 10414 10412 10411 10410 10409 10407 10406
10452 10451 10451 10450 10451 10451 10450 10449 10449 10450 10451 10451 10451 10451 10451 10451 10451 10451 10451 10451 10451 10451 10451 10450 10449 10449 10449 10450 10451 10451 10450 10450 10450 10449 10449 10448 10447 10447 10446 10446 10445 10444 10443 10442 10442 10441 10440 10439 10439 10437 10437 10436 10435 10434 10433 10432 10432 10431 10429 10429 10427 10427 10426 10424 10423 10422 10421 10420 10419 10417 10416 10415 10414 10412 10411 10410 10409 10407 10406 10405 10404 10402 10401 10400 10399 10398
10444 10444 10443 10442 10442 10442 10442 10442 10441 10441 10443 10444 10443 10443 10443 10443 10442 10442 10442 10442 10442 10442 10443 10443 10442 10442 10442 10442 10443 10443 10443 10442 10442 10442 10442 10441 10441 10440 10439 10439 10437 10437 10436 10436 10435 10434 10433 10432 10431 10431 10430 10429 10428 10427 10426 10425 10424 10423 10422 10421 10420 10419 10417 10417 10416 10414 10413 10412 10411 10409 10408 10407 10406 10404 10403 10402 10401 10399 10398 10397 10396 10394 10393 10392 10391 10389
10435 10435 10436 10435 10434 10434 10434 10434 10433 10433 10434 10436 10435 10435 10435 10436 10436 10435 10435 10434 10434 10435 10436 10436 10436 10436 10436 10436 10436 10436 10436 10436 10435 10435 10434 10434 10434 10433 10432 10431 10431 10430 10429 10429 10428 10427 10426 10426 10424 10424 10423 10422 10421 10420 10419 10418 10417 10416 10415 10414 10412 10411 10410 10409 10407 10407 10406 10404 10403 10402 10401 10399 10398 10397 10396 10394 10393 10392 10391 10389 10388 10386 10385 10384 10382 10381
10427 10427 10427 10427 10427 10426 10426 10426 10426 10426 10427 10427 10427 10427 10426 10427 10428 10429 10428 10427 10427 10427 10427 10427 10427 10429 10429 10429 10428 10429 10429 10429 10428 10427 10427 10427 10427 10426 10426 10425 10424 10424 10423 10422 10421 10421 10419 10419 10418 10417 10416 10415 10414 10413 10412 10411 10410 10409 10407 10406 10405 10404 10402 10402 10401 10399 10398 10397 10396 10394 10393 10392 10391 10389 10388 10387 10385 10384 10382 10381 10380 10379 10377 10376 10374 10373
10419 10419 10420 10419 10419 10419 10419 10418 10418 10419 10419 10419 10419 10419 10419 10419 10421 10421 10421 10420 10420 10420 10420 10420 10420 10421 10421 10422 10422 10422 10422 10421 10421 10421 10421 10420 10419 10419 10419 10418 10417 10417 10416 10416 10414 10414 10413 10412 10411 10410 10409 10408 10407 10406 10406 10404 10403 10402 10401 10399 10398 10397 10396 10394 10393 10392 10391 10390 10389 10387 10386 10384 10383 10382 10381 10379 10377 10376 10375 10374 10372 10371 10369 10367 10366 10365
10412 10412 10412 10412 10411 10411 10411 10411 10411 10411 10411 10411 10412 10412 10412 10412 10413 10413 10413 10412 10412 10412 10414 10414 10413 10413 10414 10414 10415 10415 10415 10414 10414 10414 10413 10412 10412 10412 10412 10411 10410 10410 10409 10409 10408 10407 10406 10406 10405 10404 10402 10402 10401 10399 10399 10397 10396 10395 10394 10392 10391 10390 10389 10387 10386 10385 10384 10382 10381 10380 10379 10377 10376 10374 10373 10372 10370 10369 10367 10366 10364 10362 10361 10359 10358 10357
10404 10404 10404 10404 10403 10403 10403 10404 10404 10404 10404 10404 10404 10405 10405 10405 10406 10406 10406 10405 10405 10406 10407 10407 10406 10406 10406 10407 10407 10408 10408 10408 10407 10407 10406 10406 10405 10405 10406 10404 10403 10402 10402 10402 10401 10400 10399 10399 10398 10397 10396 10395 10394 10393 10392 10391 10390 10389 10387 10386 10384 10383 10382 10381 10379 10378 10377 10376 10374 10373 10372 10370 10369 10367 10366 10364 10363 10361 10360 10358 10356 10355 10353 10352 10350 10349
10397 10397 10397 10396 10396 10396 10396 10396 10396 10396 10396 10397 10397 10398 10398 10398 10397 10397 10398 10398 10398 10399 10399 10399 10399 10399 10399 10399 10401 10401 10402 10401 10401 10400 10399 10398 10397 10398 10399 10398 10396 10396 10396 10396 10394 10394 10393 10392 10391 10390 10389 10389 10387 10387 10386 10384 10383 10382 10381 10379 10378 10377 10376 10374 10373 10372 10371 10369 10367 10366 10365 10363 10362 10360 10359 10357 10356 10354 10352 10351 10349 10347 10346 10344 10342 10341
10389 10389 10389 10389 10389 10388 10387 10388 10389 10389 10389 10389 10390 10391 10391 10391 10391 10391 10391 10391 10391 10392 10392 10392 10392 10392 10392 10392 10392 10394 10395 10395 10394 10393 10393 10392 10391 10391 10392 10391 10390 10389 10388 10388 10388 10387 10386 10386 10384 10384 10382 10382 10381 10380 10379 10378 10377 10375 10374 10372 10371 10370 10369 10367 10366 10365 10364 10362 10361 10359 10358 10356 10355 10353 10352 10350 10348 10347 10345 10343 10341 10340 10338 10336 10335 10333
10381 10381 10382 10382 10381 10381 10381 10381 10381 10381 10382 10382 10382 10383 10383 10384 10383 10383 10384 10384 10384 10384 10385 10385 10386 10386 10386 10385 10385 10386 10388 10389 10387 10386 10386 10385 10384 10384 10385 10384 10384 10382 10382 10381 10381 10381 10380 10379 10377 10377 10376 10375 10374 10374 10372 10371 10370 10369 10367 10366 10364 10363 10362 10361 10360 10359 10357 10356 10354 10353 10351 10350 10348 10347 10345 10343 10341 10339 10337 10336 10334 10332 10331 10329 10327 10326
10373 10374 10374 10374 10374 10374 10374 10374 10374 10374 10374 10375 10375 10376 10376 10376 10376 10376 10376 10376 10377 10377 10378 10378 10378 10378 10379 10378 10378 10379 10381 10382 10381 10380 10379 10378 10377 10377 10378 10378 10377 10376 10375 10375 10374 10374 10373 10372 10371 10370 10369 10369 10368 10367 10366 10364 10363 10362 10361 10359 10358 10357 10356 10354 10353 10352 10351 10349 10348 10346 10345 10343 10342 10340 10338 10336 10334 10332 10331 10329 10327 10325 10323 10321 10320 10318
10365 10366 10366 10366 10367 10367 10367 10366 10366 10367 10367 10367 10368 10369 10369 10368 10369 10369 10369 10369 10370 10371 10371 10371 10371 10371 10372 10372 10372 10372 10374 10375 10374 10373 10372 10371 10371 10371 10371 10371 10371 10369 10369 10368 10367 10367 10366 10365 10364 10363 10362 10362 10361 10361 10359 10358 10357 10356 10354 10352 10352 10351 10349 10348 10347 10346 10344 10343 10341 10340 10338 10337 10335 10333 10331 10329 10327 10325 10323 10321 10319 10317 10316 10314 10312 10311
10357 10357 10357 10359 10360 10361 10359 10359 10359 10359 10360 10360 10361 10361 10361 10361 10361 10362 10362 10362 10363 10364 10364 10364 10364 10364 10365 10366 10365 10366 10367 10368 10367 10366 10365 10365 10364 10364 10364 10365 10364 10363 10362 10361 10361 10361 10359 10358 10357 10356 10356 10356 10354 10354 10352 10351 10350 10349 10347 10346 10345 10344 10343 10342 10341 10339 10337 10336 10335 10333 10332 10330 10328 10326 10324 10322 10320 10317 10316 10314 10312 10310 10308 10306 10304 10303
10351 10350 10350 10351 10352 10353 10352 10352 10352 10352 10353 10353 10353 10353 10353 10354 10354 10355 10355 10356 10356 10356 10357 10357 10357 10357 10359 10359 10359 10359 10360 10361 10361 10359 10359 10358 10357 10356 10357 10359 10358 10357 10356 10354 10354 10354 10353 10351 10350 10349 10349 10349 10348 10347 10346 10344 10343 10342 10341 10340 10339 10337 10336 10335 10334 10332 10331 10329 10328 10326 10324 10323 10321 10319 10317 10315 10312 10311 10309 10306 10304 10302 10301 10299 10297 10295
10343 10343 10343 10344 10345 10346 10346 10346 10346 10346 10346 10346 10346 10346 10346 10347 10347 10347 10348 10349 10349 10349 10349 10350 10351 10351 10352 10352 10352 10352 10353 10354 10354 10353 10352 10351 10350 10349 10351 10352 10352 10350 10349 10348 10348 10347 10346 10345 10344 10343 10342 10342 10341 10340 10339 10338 10337 10336 10334 10333 10332 10331 10329 10328 10327 10326 10324 10322 10321 10319 10317 10316 10314 10312 10310 10307 10306 10304 10301 10299 10297 10295 10293 10291 10289 10288
10336 10336 10336 10337 10337 10338 10339 10339 10339 10339 10339 10339 10339 10338 10339 10339 10340 10341 10341 10342 10342 10342 10342 10344 10344 10345 10345 10346 10346 10346 10346 10347 10347 10347 10346 10344 10343 10343 10344 10346 10345 10344 10342 10342 10342 10341 10339 10337 10337 10336 10336 10335 10334 10333 10332 10331 10330 10329 10327 10327 10326 10324 10322 10321 10320 10318 10317 10316 10314 10312 10311 10309 10307 10305 10303 10301 10299 10297 10294 10292 10290 10288 10286 10284 10282 10281
10329 10329 10329 10329 10330 10331 10331 10332 10332 10332 10332 10332 10332 10331 10332 10332 10333 10334 10334 10335 10336 10336 10336 10337 10337 10337 10338 10339 10341 10340 10339 10341 10341 10340 10339 10337 10337 10337 10337 10339 10339 10337 10336 10335 10336 10335 10333 10331 10330 10329 10329 10328 10327 10327 10326 10324 10323 10322 10321 10320 10319 10317 10316 10314 10313 10311 10310 10309 10307 10306 10304 10302 10301 10298 10296 10294 10292 10290 10287 10286 10283 10281 10279 10277 10275 10273
10321 10322 10322 10322 10323 10324 10324 10324 10325 10325 10325 10325 10325 10325 10325 10326 10326 10327 10327 10327 10328 10329 10329 10331 10331 10331 10332 10334 10334 10334 10333 10334 10334 10333 10332 10332 10331 10330 10330 10331 10332 10331 10329 10329 10329 10328 10327 10324 10323 10323 10322 10322 10321 10320 10319 10317 10317 10316 10314 10314 10312 10311 10309 10307 10306 10304 10303 10302 10300 10299 10297 10296 10294 10292 10290 10287 10286 10283 10281 10279 10276 10274 10272 10270 10268 10266
10314 10314 10315 10316 10316 10316 10317 10317 10317 10318 10318 10318 10318 10318 10319 10319 10319 10320 10320 10320 10321 10322 10324 10324 10324 10325 10326 10327 10327 10327 10327 10327 10327 10326 10326 10326 10325 10324 10323 10324 10325 10325 10323 10322 10322 10321 10321 10319 10317 10316 10316 10315 10314 10313 10312 10311 10310 10309 10308 10307 10306 10304 10302 10301 10299 10298 10296 10295 10294 10292 10291 10289 10287 10285 10283 10281 10279 10276 10274 10272 10269 10267 10265 10263 10261 10259
10306 10307 10307 10308 10309 10309 10309 10310 10311 10311 10311 10311 10311 10311 10312 10312 10312 10312 10312 10313 10315 10317 10317 10317 10318 10319 10320 10321 10321 10321 10321 10321 10320 10319 10320 10320 10319 10317 10316 10318 10319 10318 10317 10316 10315 10314 10314 10312 10311 10310 10309 10309 10307 10307 10306 10305 10304 10303 10302 10301 10299 10298 10296 10294 10293 10291 10290 10289 10287 10286 10284 10282 10280 10278 10276 10274 10272 10269 10267 10265 10262 10261 10259 10257 10255 10253
10298 10299 10300 10301 10301 10302 10302 10303 10303 10304 10304 10304 10304 10305 10305 10306 10306 10306 10306 10307 10309 10310 10310 10311 10312 10313 10314 10314 10315 10315 10315 10314 10314 10314 10315 10314 10312 10310 10311 10312 10312 10311 10311 10310 10309 10307 10307 10306 10305 10304 10303 10302 10301 10301 10299 10299 10297 10297 10296 10294 10293 10292 10291 10289 10287 10286 10284 10282 10281 10279 10277 10276 10274 10272 10270 10267 10265 10263 10261 10258 10256 10254 10252 10250 10248 10247
10290 10291 10292 10293 10294 10294 10295 10296 10296 10296 10297 10297 10298 10298 10298 10299 10299 10299 10299 10301 10302 10304 10304 10305 10306 10307 10307 10309 10309 10309 10308 10307 10307 10309 10309 10308 10306 10304 10305 10306 10305 10304 10305 10304 10302 10301 10300 10299 10299 10299 10297 10296 10295 10294 10293 10292 10292 10291 10289 10289 10287 10286 10284 10283 10281 10279 10278 10276 10275 10273 10271 10269 10267 10266 10264 10261 10259 10256 10254 10251 10249 10247 10246 10244 10242 10240
10282 10283 10284 10285 10286 10287 10287 10288 10289 10289 10290 10291 10291 10291 10291 10292 10292 10293 10294 10295 10296 10297 10297 10299 10300 10301 10302 10302 10302 10302 10301 10301 10302 10303 10304 10302 10299 10298 10299 10300 10299 10297 10299 10299 10297 10295 10292 10292 10292 10292 10292 10291 10289 10288 10287 10287 10286 10285 10284 10283 10282 10281 10279 10277 10276 10274 10272 10271 10269 10267 10266 10264 10262 10260 10257 10255 10252 10250 10247 10245 10243 10241 10239 10237 10236 10234
10274 10275 10276 10277 10278 10279 10280 10281 10281 10282 10283 10283 10284 10284 10285 10286 10286 10287 10288 10289 10290 10291 10292 10292 10293 10294 10295 10296 10296 10296 10296 10296 10297 10297 10297 10296 10294 10292 10294 10294 10292 10291 10292 10292 10291 10289 10287 10286 10285 10286 10286 10285 10283 10282 10281 10281 10280 10279 10278 10277 10276 10275 10274 10272 10271 10269 10267 10265 10264 10262 10260 10258 10256 10254 10252 10249 10246 10244 10241 10239 10237 10236 10234 10231 10229 10227
10265 10266 10267 10269 10270 10271 10272 10273 10274 10275 10276 10276 10277 10277 10278 10279 10280 10281 10282 10282 10284 10285 10286 10286 10287 10288 10289 10290 10290 10290 10290 10291 10291 10291 10291 10290 10288 10287 10287 10287 10287 10286 10286 10285 10284 10284 10282 10280 10279 10279 10279 10278 10277 10276 10275 10274 10274 10273 10272 10271 10271 10269 10268 10267 10266 10264 10262 10260 10259 10257 10255 10254 10251 10249 10247 10244 10241 10238 10236 10234 10232 10230 10228 10226 10224 10222
10256 10258 10259 10261 10262 10263 10264 10266 10267 10267 10269 10269 10270 10271 10272 10272 10274 10275 10276 10277 10277 10279 10279 10280 10281 10282 10282 10283 10284 10284 10284 10285 10285 10285 10285 10284 10282 10281 10281 10282 10281 10280 10279 10279 10278 10277 10276 10274 10273 10272 10272 10271 10271 10270 10269 10268 10267 10267 10266 10266 10264 10263 10262 10261 10260 10259 10257 10256 10254 10252 10251 10249 10247 10244 10242 10239 10236 10233 10231 10228 10226 10224 10223 10221 10219 10217
10247 10249 10251 10253 10254 10256 10257 10258 10259 10261 10261 10262 10263 10264 10265 10266 10267 10269 10269 10271 10272 10272 10273 10274 10275 10276 10277 10277 10278 10278 10279 10279 10279 10280 10279 10279 10277 10276 10276 10276 10275 10274 10274 10272 10271 10271 10270 10268 10267 10267 10266 10264 10264 10264 10263 10262 10262 10261 10260 10260 10259 10257 10256 10256 10254 10253 10251 10251 10249 10247 10246 10244 10242 10239 10237 10234 10231 10228 10226 10224 10222 10220 10218 10217 10215 10214
10239 10241 10243 10245 10246 10248 10249 10251 10252 10253 10254 10256 10256 10257 10259 10260 10261 10262 10263 10264 10266 10266 10267 10268 10269 10270 10271 10271 10272 10272 10273 10274 10274 10274 10274 10272 10272 10271 10270 10269 10269 10269 10269 10266 10266 10265 10264 10262 10261 10261 10259 10258 10257 10256 10256 10256 10256 10255 10254 10253 10252 10252 10250 10249 10249 10247 10246 10245 10244 10242 10241 10239 10237 10234 10231 10229 10226 10223 10221 10219 10217 10215 10214 10212 10211 10209
10231 10233 10235 10237 10239 10240 10242 10243 10245 10246 10247 10249 10250 10251 10252 10254 10255 10256 10257 10258 10259 10261 10261 10262 10263 10264 10265 10266 10267 10267 10267 10268 10269 10268 10267 10267 10266 10266 10265 10263 10263 10263 10263 10261 10259 10259 10258 10256 10255 10254 10253 10252 10251 10249 10249 10249 10249 10249 10247 10247 10246 10246 10244 10243 10242 10242 10241 10239 10238 10237 10235 10233 10231 10228 10226 10223 10220 10218 10216 10214 10212 10211 10209 10207 10206 10205
10223 10225 10227 10229 10231 10233 10234 10236 10238 10239 10241 10242 10243 10245 10246 10247 10249 10250 10251 10252 10253 10254 10255 10256 10257 10259 10259 10261 10261 10262 10262 10263 10262 10262 10262 10261 10261 10261 10259 10258 10257 10257 10257 10256 10254 10253 10252 10251 10249 10247 10246 10246 10245 10244 10243 10242 10242 10241 10241 10241 10240 10239 10238 10237 10237 10236 10235 10234 10232 10231 10229 10227 10225 10222 10219 10217 10214 10212 10210 10208 10207 10206 10204 10203 10202 10201
10215 10217 10219 10221 10224 10226 10227 10229 10231 10232 10234 10236 10237 10238 10240 10241 10242 10244 10245 10246 10247 10248 10249 10251 10252 10253 10254 10255 10256 10256 10257 10257 10257 10256 10256 10256 10256 10255 10254 10253 10252 10251 10251 10250 10249 10247 10246 10245 10243 10242 10241 10239 10239 10237 10237 10236 10236 10234 10234 10234 10233 10232 10232 10231 10231 10229 10229 10227 10226 10224 10222 10221 10219 10216 10214 10211 10209 10207 10204 10202 10201 10200 10199 10197 10196 10196
10207 10210 10212 10214 10216 10219 10221 10222 10224 10226 10228 10229 10231 10232 10233 10235 10236 10237 10239 10239 10241 10242 10243 10245 10246 10247 10248 10249 10250 10251 10251 10251 10251 10251 10251 10251 10250 10249 10249 10247 10246 10246 10245 10244 10244 10242 10241 10239 10237 10236 10236 10234 10232 10231 10230 10229 10229 10229 10228 10227 10226 10225 10225 10225 10224 10223 10222 10221 10220 10218 10216 10214 10212 10210 10207 10205 10203 10201 10199 10197 10195 10194 10193 10192 10191 10190
10201 10203 10205 10207 10210 10212 10214 10216 10218 10220 10221 10222 10224 10225 10227 10228 10230 10231 10232 10233 10234 10236 10237 10239 10241 10242 10242 10243 10244 10245 10246 10246 10246 10246 10246 10245 10244 10244 10243 10242 10241 10241 10239 10239 10237 10236 10236 10234 10232 10231 10230 10229 10227 10226 10224 10223 10222 10222 10222 10221 10220 10219 10218 10218 10217 10216 10216 10214 10213 10211 10209 10207 10205 10203 10201 10199 10197 10196 10194 10192 10190 10188 10187 10187 10186 10185
10194 10196 10198 10201 10203 10206 10207 10209 10211 10213 10214 10216 10217 10219 10220 10222 10224 10225 10226 10227 10229 10230 10232 10234 10235 10236 10237 10237 10238 10239 10240 10240 10241 10241 10240 10239 10239 10238 10237 10237 10236 10235 10234 10233 10232 10231 10229 10229 10227 10226 10224 10223 10222 10220 10218 10217 10217 10217 10216 10215 10214 10212 10211 10211 10210 10210 10209 10207 10205 10204 10202 10200 10197 10196 10194 10192 10191 10189 10187 10186 10184 10182 10181 10181 10180 10179
10187 10189 10192 10194 10197 10199 10201 10203 10204 10206 10207 10209 10211 10212 10214 10216 10217 10219 10220 10221 10222 10224 10226 10228 10229 10231 10231 10231 10232 10233 10234 10235 10235 10235 10234 10234 10234 10233 10232 10231 10231 10230 10229 10227 10226 10224 10224 10223 10222 10220 10219 10218 10217 10215 10213 10212 10211 10211 10210 10209 10209 10207 10205 10203 10203 10203 10202 10199 10197 10196 10194 10192 10191 10189 10187 10186 10184 10182 10181 10179 10177 10176 10175 10174 10173 10171
10181 10183 10186 10188 10191 10192 10194 10196 10197 10199 10201 10202 10204 10206 10207 10210 10212 10213 10214 10216 10217 10219 10221 10222 10224 10225 10226 10226 10226 10227 10229 10229 10229 10229 10229 10229 10228 10227 10227 10226 10225 10224 10223 10222 10221 10219 10218 10217 10216 10215 10214 10213 10212 10210 10208 10207 10206 10205 10204 10204 10203 10202 10200 10198 10197 10196 10194 10192 10191 10189 10187 10186 10184 10182 10180 10179 10177 10175 10173 10172 10170 10169 10168 10167 10166 10164
10174 10177 10179 10182 10184 10186 10187 10189 10191 10192 10194 10196 10197 10200 10202 10204 10206 10207 10209 10210 10211 10213 10215 10217 10218 10219 10219 10220 10221 10222 10223 10224 10224 10224 10223 10223 10222 10222 10221 10221 10219 10218 10217 10216 10215 10214 10213 10212 10210 10209 10209 10208 10206 10205 10204 10202 10201 10200 10199 10198 10198 10197 10195 10194 10192 10190 10187 10186 10183 10182 10180 10179 10177 10176 10174 10172 10170 10168 10166 10165 10163 10162 10161 10160 10159 10157
10168 10171 10173 10175 10177 10179 10181 10182 10184 10186 10188 10190 10192 10194 10196 10198 10200 10201 10202 10204 10206 10207 10209 10211 10212 10213 10214 10214 10216 10217 10217 10217 10217 10218 10218 10217 10217 10217 10216 10215 10214 10212 10212 10210 10209 10208 10207 10206 10205 10204 10203 10202 10201 10199 10199 10197 10196 10195 10194 10193 10192 10191 10189 10188 10186 10184 10182 10180 10177 10176 10174 10173 10172 10170 10168 10166 10164 10162 10160 10159 10157 10155 10154 10152 10151 10150
10162 10164 10167 10169 10171 10172 10174 10176 10178 10180 10182 10184 10186 10188 10190 10192 10194 10196 10197 10199 10200 10202 10203 10205 10207 10207 10208 10209 10211 10212 10212 10212 10212 10212 10212 10212 10212 10211 10211 10209 10208 10207 10206 10205 10204 10203 10202 10201 10200 10199 10198 10197 10196 10194 10193 10193 10192 10191 10189 10189 10187 10186 10184 10182 10181 10179 10177 10174 10172 10170 10169 10167 10166 10164 10162 10161 10159 10156 10154 10152 10151 10149 10147 10146 10144 10143
10156 10159 10161 10162 10165 10167 10168 10170 10172 10174 10176 10177 10180 10182 10184 10187 10189 10190 10191 10193 10195 10196 10198 10199 10201 10202 10203 10204 10206 10206 10207 10207 10207 10207 10207 10207 10206 10206 10205 10204 10202 10201 10201 10199 10199 10197 10197 10196 10195 10194 10193 10192 10191 10189 10188 10188 10187 10187 10186 10184 10183 10181 10179 10177 10174 10173 10171 10169 10167 10166 10164 10162 10161 10159 10157 10156 10154 10151 10149 10146 10144 10142 10141 10140 10139 10137
10150 10152 10154 10157 10159 10161 10162 10164 10166 10168 10170 10172 10174 10177 10179 10181 10182 10184 10186 10187 10189 10191 10192 10194 10196 10197 10198 10199 10200 10201 10201 10201 10201 10201 10201 10201 10201 10200 10199 10198 10197 10196 10195 10194 10194 10192 10191 10191 10189 10189 10188 10187 10186 10184 10183 10182 10182 10182 10181 10179 10178 10176 10174 10171 10169 10167 10166 10164 10162 10161 10159 10157 10156 10155 10154 10151 10149 10146 10144 10141 10138 10136 10135 10134 10133 10131
10144 10146 10148 10151 10152 10154 10156 10158 10161 10162 10164 10166 10169 10171 10173 10175 10177 10179 10181 10182 10184 10186 10187 10189 10190 10192 10192 10194 10194 10195 10196 10196 10196 10196 10196 10196 10195 10194 10194 10192 10192 10191 10190 10189 10188 10187 10186 10185 10184 10182 10182 10182 10181 10180 10179 10178 10177 10177 10176 10174 10172 10171 10169 10166 10164 10162 10161 10159 10157 10156 10154 10152 10152 10151 10149 10147 10144 10142 10139 10136 10132 10130 10129 10128 10127 10126
10137 10140 10142 10144 10146 10148 10151 10152 10154 10157 10159 10161 10163 10166 10167 10169 10172 10174 10176 10177 10179 10180 10182 10184 10185 10186 10187 10188 10189 10190 10190 10191 10191 10190 10190 10190 10190 10189 10188 10187 10186 10186 10185 10184 10183 10182 10181 10180 10178 10177 10176 10177 10177 10177 10175 10173 10172 10172 10171 10169 10167 10166 10164 10161 10159 10157 10156 10154 10152 10151 10149 10148 10147 10146 10145 10143 10141 10137 10134 10131 10127 10125 10123 10122 10122 10121